Find Starlink 34005

NORAD ID: 63935 Int'l Des: 2025-098 Owner: SPXS Country: US Constellation: starlink operational
LEOCIRCULAR

現在のビュー

3D地球を読み込み中...

Starlink 34005について

説明を読み込み中...

次回通過

Passes for default location (London). Set your location on the main map for personalized predictions.

高度履歴

Loading altitude history...

軌道要素

1 63935U 25098K 26150.17358355 .00003860 00000-0 33106-3 0 9994
2 63935 70.0020 69.1738 0002884 268.9277 91.1552 14.98336785 58767
Epoch: May 30, 2026 • Age: 11 hours

現在のステータス

高度 589.1 km
速度 7.57 km/s
衛星直下点 -49.80°S, 162.97°E
打ち上げ日 May 13, 2025
運用期間 1 years
タイプ internet

技術仕様

分類 Payload
質量 575.00 kg
乾燥質量 530.00 kg
総質量 575.00 kg
長さ 0.30 m
直径 4.10 m
スパン 29.00 m
形状 Box + pan
製造者 SPXS
バスタイプ Starlink V2MO
フェーズステータス In Orbit
所有者/国 SPXS/US

Most Searched